User: anonymous   Login
Location: Fort Wayne
(41.1310°N, 85.1290°W)
Time: 12:50:33
(UTC-04:00)
Language:

Oscar 19 - Orbit

View from above orbital plane
View from above orbital plane
View from above satellite
View from above satellite

Ground track
Ground track

The orbit data is extracted from the following two-line orbital elements,

1 20442U 90005G   16211.87279181 -.00000016 +00000-0 +10058-4 0  9996
2 20442 098.5442 146.2234 0012336 025.4731 334.7059 14.32823713385400
Epoch (UTC): 29 July 2016 20:56:49
Eccentricity: 0.0012336
inclination: 98.5442°
perigee height: 773 km
apogee height: 791 km
right ascension of ascending node: 146.2234°
argument of perigee: 25.4731°
revolutions per day: 14.32823713
mean anomaly at epoch: 334.7059°
orbit number at epoch: 38540

The dashed part of the orbit path shows where the satellite is in the earth's shadow,  

DLR